Location: Geroldsau
(48.7259°N, 8.2466°E)
Time: 15:03:41
(UTC+00:00)

Cosmos 990 Rocket - Pass Details

Date: 20 June 2021
Orbit: 747 x 768 km, 74.0° (Epoch: 05 August)

Event Time Altitude Azimuth Distance (km) Brightness Sun altitude
Rises 00:12:15 0° 335° (NNW) 3,227 8.1 -17.2°
Reaches altitude 10° 00:14:39 10° 333° (NNW) 2,294 7.2 -17.1°
Maximum altitude 00:19:48 68° 251° (WSW) 813 4.0 -16.9°
Enters shadow 00:22:32 28° 176° (S) 1,394 4.8 -16.8°
